Regional Weather Roundup
Issued by NWS

Home | Current Version | Previous Version | Graphics & Text | Print | Product List | Glossary On
Versions: 1 2 3 4 5 6 7 8 9 10 11 12 13 14 15 16 17 18 19 20 21 22 23 24 25 26 27 28 29 30 31 32 33 34 35 36 37 38 39 40 41 42 43 44 45 46 47 48 49 50
000
ASUS43 KTOP 262359
RWRKS

WEATHER ROUNDUP FOR KANSAS
NATIONAL WEATHER SERVICE GOODLAND KS
700 PM CDT SAT MAY 26 2018

NOTE:  "FAIR" INDICATES FEW OR NO CLOUDS BELOW 12,000 FEET WITH NO
SIGNIFICANT WEATHER AND/OR OBSTRUCTIONS TO VISIBILITY.

KSZ001>006-013>018-027>032-041>047-270100-
NORTHWEST KANSAS

CITY           SKY/WX    TMP DP  RH WIND       PRES   REMARKS
GOODLAND       PTSUNNY   87  44  22 S23G35    29.81S
6HR MIN TEMP:  87; 6HR MAX TEMP:  92;

HAYS           SUNNY     91  56  30 S14       29.79S
HILL CITY      SUNNY     91  53  27 S15G23    29.79R
6HR MIN TEMP:  90; 6HR MAX TEMP:  94;

RUSSELL        MOSUNNY   92  59  33 S15       29.78S
6HR MIN TEMP:  92; 6HR MAX TEMP:  97;

$$

KSZ061>065-074>080-084>089-270100-
SOUTHWEST KANSAS

CITY           SKY/WX    TMP DP  RH WIND       PRES   REMARKS
DODGE CITY     SUNNY     92  50  23 SE20G30   29.83S
6HR MIN TEMP:  92; 6HR MAX TEMP:  98;

ELKHART        PTSUNNY   92  58  30 SE22      29.82F
GARDEN CITY    MOSUNNY   92  44  19 S21G31    29.81F
6HR MIN TEMP:  91; 6HR MAX TEMP:  97;

GREAT BEND     SUNNY     91  58  32 S16       29.81R
LIBERAL        MOSUNNY   92  44  19 SE16G25   29.82S
$$

KSZ066>073-081>083-090>101-270100-
SOUTHEAST KANSAS

CITY           SKY/WX    TMP DP  RH WIND       PRES   REMARKS
CHANUTE        SUNNY     87  69  54 S6        29.80F
6HR MIN TEMP:  85; 6HR MAX TEMP:  90;

COFFEYVILLE    SUNNY     89  66  46 S5        29.79S
6HR MIN TEMP:  88; 6HR MAX TEMP:  92;

HUTCHINSON     CLOUDY    93  61  34 S13       29.79S
6HR MIN TEMP:  91; 6HR MAX TEMP:  97;

MEDICINE LODGE   N/A     90  58  33 SE8       29.79S
NEWTON         MOSUNNY   88  67  49 SE10      29.81F
PARSONS        SUNNY     88  70  55 CALM      29.80F
6HR MIN TEMP:  86; 6HR MAX TEMP:  90;

WICHITA INTL   CLOUDY    92  59  33 S10       29.79F
6HR MIN TEMP:  91; 6HR MAX TEMP:  96;

WICHITA JABRA  CLOUDY    88  65  46 S10       29.80F
6HR MIN TEMP:  87; 6HR MAX TEMP:  92;

WICHITA MCCONL MOSUNNY   90  64  41 S9        29.81S
WINFIELD       CLOUDY    87  67  51 SE7       29.81F
6HR MIN TEMP:  87; 6HR MAX TEMP:  92;

$$

KSZ007>012-019>026-033>040-048>060-102>105-270100-
NORTHEAST KANSAS

CITY           SKY/WX    TMP DP  RH WIND       PRES   REMARKS
CONCORDIA      SUNNY     93  59  31 SW10      29.77S
6HR MIN TEMP:  89; 6HR MAX TEMP:  95;

EMPORIA        SUNNY     87  70  56 S10       29.79S
6HR MIN TEMP:  87; 6HR MAX TEMP:  90;

LAWRENCE       SUNNY     91  69  48 SW12      29.75S HX  96
6HR MIN TEMP:  90; 6HR MAX TEMP:  94;

MANHATTAN      SUNNY     96  62  32 S14       29.74R HX  97
6HR MIN TEMP:  93; 6HR MAX TEMP: 101;

OLATHE IND     CLOUDY    89  72  56 S13G20    29.79R HX  96
6HR MIN TEMP:  89; 6HR MAX TEMP:  93;

OLATHE EXE     CLOUDY    87  72  60 S9        29.78S
6HR MIN TEMP:  87; 6HR MAX TEMP:  90;

SALINA         MOSUNNY   95  58  28 S12       29.77S
6HR MIN TEMP:  95; 6HR MAX TEMP: 100;

TOPEKA BILLARD SUNNY     93  69  45 S10       29.74F HX  98
6HR MIN TEMP:  91; 6HR MAX TEMP:  97;

TOPEKA FORBES  SUNNY     92  69  47 S10       29.76F HX  97
6HR MIN TEMP:  91; 6HR MAX TEMP:  96;

$$



USA.gov is the U.S. government's official web portal to all federal, state and local government web resources and services.